GW3840 Weather Reports


time (UTC)temp
C
wind
direction
speed
KPH
gust
KPH
rain 1hr
cm
rain 24hr
cm
rain mn
cm
humidity
%
barometer
mb
20260904112320 18 194 0.0 1.6 0.00 0.00 0.00 99 1012.9
20260904111816 18 99 1.6 4.8 0.00 0.00 0.00 99 1012.9
20260904111311 18 77 1.6 1.6 0.00 0.00 0.00 99 1012.7
20260904110807 18 95 4.8 6.4 0.00 0.00 0.00 99 1012.8
20260904110306 18 82 3.2 3.2 0.00 0.00 0.00 99 1012.8
20260904105801 18 70 3.2 4.8 0.00 0.00 0.00 99 1012.6
20260904105256 18 55 6.4 6.4 0.00 0.00 0.00 99 1012.8
20260904104751 18 80 1.6 6.4 0.00 0.00 0.00 99 1012.7
20260904104247 18 68 1.6 4.8 0.00 0.00 0.00 99 1012.9
20260904103743 18 43 1.6 3.2 0.00 0.00 0.00 99 1012.9
20260904103237 18 114 0.0 3.2 0.00 0.00 0.00 99 1012.6
20260904102733 18 116 3.2 4.8 0.00 0.00 0.00 99 1012.6
20260904102229 18 102 1.6 6.4 0.00 0.00 0.00 99 1012.5
20260904101725 18 65 3.2 9.7 0.00 0.00 0.00 99 1012.7
20260904101220 18 79 1.6 6.4 0.00 0.00 0.00 99 1012.5
20260904100717 18 94 4.8 9.7 0.00 0.00 0.00 99 1012.8
20260904100212 18 69 4.8 6.4 0.00 0.00 0.00 99 1012.6
20260904095711 18 49 6.4 9.7 0.00 0.00 0.00 99 1012.5
20260904095206 18 66 1.6 3.2 0.00 0.00 0.00 99 1012.8
20260904094701 18 94 3.2 4.8 0.00 0.00 0.00 99 1012.6
20260904094156 18 69 6.4 11.3 0.00 0.00 0.00 99 1012.5
20260904093654 18 60 1.6 9.7 0.00 0.00 0.00 99 1012.5
20260904093153 18 17 3.2 4.8 0.00 0.00 0.00 99 1012.5
20260904092649 18 115 1.6 3.2 0.00 0.00 0.00 99 1012.7
20260904092145 18 108 1.6 3.2 0.00 0.00 0.00 99 1012.7
20260904091641 18 72 1.6 9.7 0.00 0.00 0.00 99 1012.7
20260904091141 18 7 6.4 11.3 0.00 0.00 0.00 99 1012.7
20260904090636 18 78 3.2 4.8 0.00 0.00 0.00 99 1012.6
20260904090132 18 123 1.6 6.4 0.00 0.00 0.00 99 1012.4
20260904085631 18 125 0.0 1.6 0.00 0.00 0.00 99 1012.4
20260904085126 18 99 3.2 9.7 0.00 0.00 0.00 99 1012.4
20260904084622 18 89 1.6 6.4 0.00 0.00 0.00 99 1012.2
20260904084118 18 119 1.6 3.2 0.00 0.00 0.00 99 1011.9
20260904083614 19 66 3.2 4.8 0.00 0.00 0.00 99 1012.0
20260904083109 19 50 1.6 3.2 0.00 0.00 0.00 99 1011.9
20260904082604 19 59 1.6 3.2 0.00 0.00 0.00 98 1011.9
20260904082100 19 82 3.2 6.4 0.00 0.00 0.00 98 1011.7
20260904081555 19 114 1.6 4.8 0.00 0.00 0.00 98 1011.6
20260904081050 20 99 3.2 6.4 0.00 0.00 0.00 98 1011.7
20260904080546 20 55 6.4 6.4 0.00 0.00 0.00 98 1011.4
20260904080042 20 8 3.2 6.4 0.00 0.00 0.00 98 1011.2
20260904075538 20 92 6.4 6.4 0.00 0.00 0.00 98 1011.2
20260904075032 20 120 1.6 3.2 0.00 0.00 0.00 98 1011.4
20260904074531 20 72 3.2 9.7 0.00 0.00 0.00 98 1011.3
20260904074026 20 95 3.2 6.4 0.00 0.00 0.00 98 1011.2
20260904073521 21 86 4.8 6.4 0.00 0.00 0.00 98 1011.3
20260904073018 21 91 1.6 4.8 0.00 0.00 0.00 99 1011.3
20260904072513 21 81 3.2 6.4 0.00 0.00 0.00 99 1011.3
20260904072008 21 76 1.6 4.8 0.00 0.00 0.00 99 1011.2
20260904071503 21 149 1.6 4.8 0.00 0.00 0.00 98 1011.4
20260904070958 21 88 1.6 6.4 0.00 0.00 0.00 98 1011.5
20260904070457 22 124 3.2 9.7 0.00 0.00 0.00 98 1011.1
20260904065952 22 119 1.6 3.2 0.00 0.00 0.00 98 1011.2
20260904065447 22 123 3.2 4.8 0.00 0.00 0.00 98 1011.2
20260904064942 22 124 0.0 6.4 0.00 0.00 0.00 98 1011.4
20260904064438 22 15 1.6 3.2 0.00 0.00 0.00 98 1010.9
20260904063933 22 123 3.2 3.2 0.00 0.00 0.00 97 1010.9
20260904063430 22 55 3.2 14.5 0.00 0.00 0.00 97 1011.5
20260904062924 23 9 4.8 11.3 0.00 0.00 0.00 97 1011.2
20260904062420 23 137 0.0 3.2 0.00 0.00 0.00 96 1010.9
20260904061916 22 114 3.2 6.4 0.00 0.00 0.00 97 1010.7
20260904061412 23 64 3.2 3.2 0.00 0.00 0.00 97 1010.6
20260904060908 22 88 1.6 3.2 0.00 0.00 0.00 97 1010.8
20260904060404 23 107 3.2 4.8 0.00 0.00 0.00 97 1010.8
20260904055859 23 120 3.2 4.8 0.00 0.00 0.00 97 1010.8
20260904055354 23 124 1.6 1.6 0.00 0.00 0.00 97 1010.8
20260904054850 23 141 1.6 3.2 0.00 0.00 0.00 97 1010.8
20260904054346 23 122 1.6 1.6 0.00 0.00 0.00 97 1010.8
20260904053841 23 195 1.6 3.2 0.00 0.00 0.00 97 1010.7
20260904053340 23 120 1.6 3.2 0.00 0.00 0.00 97 1010.5
20260904052836 23 123 3.2 4.8 0.00 0.00 0.00 97 1010.5
20260904052333 23 70 3.2 3.2 0.00 0.00 0.00 98 1010.5
20260904051829 23 127 1.6 1.6 0.00 0.00 0.00 98 1010.4
20260904051324 23 120 0.0 1.6 0.00 0.00 0.00 98 1010.4
20260904050819 23 128 0.0 0.0 0.00 0.00 0.00 97 1010.1
20260904050316 23 150 0.0 1.6 0.00 0.00 0.00 97 1010.2
20260904045810 23 74 1.6 3.2 0.00 0.08 0.08 97 1010.2
20260904045307 23 210 0.0 1.6 0.00 0.08 0.08 97 1010.3
20260904044759 23 127 0.0 0.0 0.00 0.08 0.08 96 1010.3
20260904044256 23 183 0.0 1.6 0.00 0.08 0.08 95 1010.2
20260904043746 23 78 0.0 3.2 0.00 0.08 0.08 96 1010.0
20260904043243 23 76 3.2 3.2 0.00 0.08 0.08 96 1010.1
20260904042743 23 109 3.2 3.2 0.00 0.08 0.08 97 1010.1
20260904042239 23 89 1.6 3.2 0.00 0.08 0.08 98 1010.2
20260904041738 23 173 0.0 0.0 0.00 0.08 0.08 98 1010.1
20260904041235 23 114 0.0 1.6 0.00 0.08 0.08 98 1010.1
20260904040731 23 96 1.6 1.6 0.00 0.08 0.08 97 1010.2
20260904040226 23 99 1.6 1.6 0.00 0.08 0.08 96 1010.2
20260904035722 23 81 1.6 1.6 0.00 0.08 0.08 96 1010.2
20260904035217 23 174 0.0 1.6 0.00 0.08 0.08 96 1010.2
20260904034716 23 130 0.0 1.6 0.00 0.08 0.08 97 1010.2
20260904034212 23 203 0.0 0.0 0.00 0.08 0.08 96 1010.1
20260904033708 24 123 0.0 0.0 0.00 0.08 0.08 96 1010.1
20260904033204 24 115 1.6 1.6 0.00 0.08 0.08 95 1010.1
20260904032700 24 137 1.6 3.2 0.00 0.08 0.08 94 1010.1
20260904032200 24 339 0.0 3.2 0.00 0.08 0.08 94 1010.0
20260904031700 24 119 1.6 3.2 0.00 0.08 0.08 95 1009.9
20260904031155 24 107 6.4 6.4 0.00 0.08 0.08 96 1009.7
20260904030651 24 167 1.6 4.8 0.00 0.08 0.08 97 1009.9
20260904030146 23 99 1.6 4.8 0.00 0.08 0.08 97 1010.1
20260904025642 24 114 0.0 4.8 0.00 0.08 0.08 97 1010.1
20260904025137 24 23 1.6 3.2 0.00 0.08 0.08 97 1009.9
20260904024632 24 151 0.0 1.6 0.00 0.08 0.08 96 1009.9
20260904024128 25 283 0.0 1.6 0.00 0.08 0.08 95 1009.9
20260904023623 25 24 3.2 4.8 0.00 0.08 0.08 94 1009.9
20260904023114 25 72 1.6 3.2 0.00 0.08 0.08 93 1009.7
20260904022614 25 82 1.6 4.8 0.00 0.08 0.08 93 1010.0
20260904022111 25 141 3.2 4.8 0.00 0.08 0.08 93 1009.7
20260904021606 25 97 4.8 4.8 0.00 0.08 0.08 93 1009.9
20260904021101 25 113 3.2 6.4 0.00 0.08 0.08 93 1009.6
20260904020556 25 99 3.2 6.4 0.13 0.08 0.08 93 1009.3
20260904020050 25 150 1.6 4.8 0.48 0.08 0.08 91 1009.5
20260904015545 27 63 1.6 4.8 0.36 0.05 0.05 85 1009.9
20260904015044 27 325 3.2 3.2 0.00 0.00 0.00 81 1009.9
20260904014538 27 5 3.2 4.8 0.00 0.00 0.00 81 1009.6
20260904014034 27 28 0.0 1.6 0.00 0.00 0.00 80 1009.4
20260904013531 27 117 0.0 1.6 0.00 0.00 0.00 80 1009.7
20260904013027 27 165 1.6 4.8 0.00 0.00 0.00 79 1009.5
20260904012526 27 122 3.2 4.8 0.00 0.00 0.00 79 1009.2
20260904012020 27 110 4.8 4.8 0.00 0.00 0.00 79 1009.0
20260904011514 27 115 4.8 4.8 0.00 0.00 0.00 78 1009.3
20260904011010 27 166 1.6 3.2 0.00 0.00 0.00 78 1009.5
20260904010506 28 110 1.6 3.2 0.00 0.00 0.00 77 1009.4
20260904010002 28 82 3.2 3.2 0.00 0.00 0.00 77 1009.3
20260904005456 28 85 6.4 6.4 0.00 0.00 0.00 76 1009.4
20260904004951 28 88 3.2 3.2 0.00 0.00 0.00 73 1009.3
20260904004448 29 102 3.2 3.2 0.00 0.00 0.00 71 1009.4
20260904003947 29 79 3.2 4.8 0.00 0.00 0.00 69 1009.3
20260904003443 29 115 1.6 3.2 0.00 0.00 0.00 69 1009.3
20260904002938 30 115 1.6 3.2 0.00 0.00 0.00 69 1009.3
20260904002435 30 134 1.6 6.4 0.00 0.00 0.00 68 1009.0
20260904001934 30 87 1.6 4.8 0.00 0.00 0.00 67 1009.0
20260904001429 30 73 3.2 4.8 0.00 0.00 0.00 66 1008.9
20260904000924 31 170 1.6 1.6 0.00 0.00 0.00 65 1008.9
20260904000425 31 68 0.0 3.2 0.00 0.00 0.00 65 1008.9
20260903235919 31 202 1.6 1.6 0.00 0.00 0.00 64 1009.0
20260903235415 31 223 0.0 3.2 0.00 0.00 0.00 64 1008.8
20260903234914 31 214 0.0 9.7 0.00 0.00 0.00 64 1008.7
20260903234410 31 280 3.2 6.4 0.00 0.00 0.00 64 1008.7
20260903233906 31 176 3.2 4.8 0.00 0.00 0.00 64 1008.5
20260903233402 31 236 3.2 6.4 0.00 0.00 0.00 63 1008.5
20260903232902 31 161 3.2 6.4 0.00 0.00 0.00 64 1008.4
20260903232357 31 185 3.2 9.7 0.00 0.00 0.00 64 1008.5
20260903231856 31 258 1.6 4.8 0.00 0.00 0.00 63 1008.3
20260903231351 31 247 4.8 11.3 0.00 0.00 0.00 63 1008.5
20260903230847 31 224 3.2 4.8 0.00 0.00 0.00 64 1008.3
20260903230341 32 110 1.6 4.8 0.00 0.00 0.00 63 1008.3
20260903225838 31 166 4.8 9.7 0.00 0.00 0.00 64 1008.4
20260903225328 31 67 6.4 11.3 0.00 0.00 0.00 63 1008.4
20260903224824 32 86 11.3 14.5 0.00 0.00 0.00 62 1008.2
20260903224320 32 164 1.6 9.7 0.00 0.00 0.00 62 1008.3
20260903223815 32 177 3.2 4.8 0.00 0.00 0.00 61 1008.2
20260903223309 31 164 1.6 9.7 0.00 0.00 0.00 62 1008.3
20260903222804 31 251 1.6 6.4 0.00 0.00 0.00 62 1008.2
20260903222305 31 138 4.8 12.9 0.00 0.00 0.00 62 1008.1
20260903221757 32 247 1.6 14.5 0.00 0.00 0.00 61 1008.3
20260903221256 32 80 6.4 9.7 0.00 0.00 0.00 60 1008.3
20260903220754 32 139 1.6 6.4 0.00 0.00 0.00 61 1008.4
20260903220249 32 151 3.2 6.4 0.00 0.00 0.00 62 1008.5
20260903215742 32 86 3.2 9.7 0.00 0.00 0.00 60 1008.4
20260903215238 32 108 1.6 6.4 0.00 0.00 0.00 62 1008.5
20260903214735 31 82 6.4 12.9 0.00 0.00 0.00 61 1008.5
20260903214232 32 255 3.2 9.7 0.00 0.00 0.00 61 1008.7
20260903213725 32 174 1.6 11.3 0.00 0.00 0.00 60 1008.5
20260903213222 32 150 8.0 16.1 0.00 0.00 0.00 61 1008.5
20260903212712 32 109 4.8 14.5 0.00 0.00 0.00 59 1008.6
20260903212208 32 301 1.6 4.8 0.00 0.00 0.00 58 1008.6
20260903211702 32 67 3.2 9.7 0.00 0.00 0.00 57 1008.5
20260903211159 32 275 8.0 11.3 0.00 0.00 0.00 57 1008.7
20260903210654 32 327 4.8 6.4 0.00 0.00 0.00 57 1008.4
20260903210150 32 242 8.0 9.7 0.00 0.00 0.00 58 1008.6
20260903205649 32 225 8.0 11.3 0.00 0.00 0.00 58 1008.5
20260903205148 32 178 3.2 6.4 0.00 0.00 0.00 59 1008.5
20260903204644 32 83 9.7 14.5 0.00 0.00 0.00 58 1008.4
20260903204140 32 202 1.6 9.7 0.00 0.00 0.00 58 1008.4
20260903203635 31 103 8.0 12.9 0.00 0.00 0.00 62 1008.1
20260903203130 32 99 9.7 14.5 0.00 0.00 0.00 60 1008.3
20260903202625 31 139 6.4 9.7 0.00 0.00 0.00 60 1008.2
20260903202120 32 175 4.8 6.4 0.00 0.00 0.00 59 1008.3
20260903201614 31 124 4.8 17.7 0.00 0.00 0.00 63 1008.4
20260903201114 32 94 14.5 17.7 0.00 0.00 0.00 59 1008.4
20260903200609 32 193 3.2 9.7 0.00 0.00 0.00 57 1008.4
20260903200104 32 189 4.8 11.3 0.00 0.00 0.00 58 1008.3
20260903195600 32 91 3.2 11.3 0.00 0.00 0.00 57 1008.4
20260903195055 32 190 9.7 14.5 0.00 0.00 0.00 57 1008.3
20260903194545 32 143 3.2 4.8 0.00 0.00 0.00 58 1008.2
20260903194040 32 81 6.4 14.5 0.00 0.00 0.00 58 1008.4
20260903193531 31 84 4.8 12.9 0.00 0.00 0.00 59 1008.2
20260903193026 31 54 11.3 14.5 0.00 0.00 0.00 60 1008.4
20260903192522 32 144 9.7 16.1 0.00 0.00 0.00 59 1008.4
20260903192017 32 205 1.6 9.7 0.00 0.00 0.00 57 1008.5
20260903191513 31 218 3.2 6.4 0.00 0.00 0.00 60 1008.4
20260903191013 31 155 6.4 14.5 0.00 0.00 0.00 59 1008.5
20260903190506 31 163 3.2 12.9 0.00 0.00 0.00 58 1008.7
20260903190000 31 237 6.4 11.3 0.00 0.00 0.00 59 1008.8
20260903185456 31 170 8.0 16.1 0.00 0.00 0.00 60 1009.0
20260903184956 31 228 11.3 20.9 0.00 0.00 0.00 59 1009.0
20260903184448 32 240 9.7 12.9 0.00 0.00 0.00 57 1009.1
20260903183947 31 151 6.4 11.3 0.00 0.00 0.00 60 1009.1
20260903183442 31 235 8.0 12.9 0.00 0.00 0.00 59 1009.3
20260903182942 31 301 1.6 14.5 0.00 0.00 0.00 59 1009.3
20260903182441 31 145 8.0 20.9 0.00 0.00 0.00 61 1009.5
20260903181936 31 160 3.2 11.3 0.00 0.00 0.00 60 1009.3
20260903181430 31 84 6.4 11.3 0.00 0.00 0.00 61 1009.3
20260903180930 31 170 3.2 12.9 0.00 0.00 0.00 60 1009.5
20260903180425 30 155 4.8 14.5 0.00 0.00 0.00 60 1009.7
20260903175924 31 242 9.7 17.7 0.00 0.00 0.00 61 1009.7
20260903175419 30 244 1.6 4.8 0.00 0.00 0.00 60 1009.5
20260903174913 30 2 3.2 6.4 0.00 0.00 0.00 62 1009.7
20260903174408 30 84 6.4 16.1 0.00 0.00 0.00 63 1009.6
20260903173903 30 98 3.2 14.5 0.00 0.00 0.00 63 1009.7
20260903173358 30 184 3.2 4.8 0.00 0.00 0.00 63 1010.0
20260903172853 30 142 6.4 12.9 0.00 0.00 0.00 62 1009.9
20260903172348 30 73 3.2 22.5 0.00 0.00 0.00 63 1010.1
20260903171843 29 194 1.6 9.7 0.00 0.00 0.00 64 1010.1
20260903171338 30 99 6.4 14.5 0.00 0.00 0.00 62 1009.9
20260903170837 29 223 3.2 11.3 0.00 0.00 0.00 64 1010.3
20260903170333 29 221 3.2 4.8 0.00 0.00 0.00 62 1010.0
20260903165831 29 157 3.2 11.3 0.00 0.00 0.00 63 1010.2
20260903165331 29 205 4.8 9.7 0.00 0.00 0.00 62 1010.1
20260903164826 30 55 4.8 16.1 0.00 0.00 0.00 63 1010.1
20260903164321 29 101 3.2 6.4 0.00 0.00 0.00 63 1010.1
20260903163820 28 98 6.4 12.9 0.00 0.00 0.00 65 1010.4
20260903163318 28 92 6.4 24.1 0.00 0.00 0.00 66 1010.3
20260903162813 28 171 3.2 4.8 0.00 0.00 0.00 65 1010.2
20260903162309 28 238 1.6 4.8 0.00 0.00 0.00 67 1010.2
20260903161805 28 169 3.2 11.3 0.00 0.00 0.00 68 1010.3
20260903161300 28 64 3.2 17.7 0.00 0.00 0.00 69 1010.4
20260903160756 28 158 8.0 12.9 0.00 0.00 0.00 69 1010.2
20260903160255 28 57 3.2 6.4 0.00 0.00 0.00 66 1010.3
20260903155753 28 169 4.8 16.1 0.00 0.00 0.00 69 1010.4
20260903155248 27 94 8.0 11.3 0.00 0.00 0.00 68 1010.4
20260903154744 27 84 11.3 14.5 0.00 0.00 0.00 71 1010.4
20260903154240 27 94 8.0 12.9 0.00 0.00 0.00 69 1010.3
20260903153735 27 104 8.0 12.9 0.00 0.00 0.00 71 1010.4
20260903153231 26 149 11.3 22.5 0.00 0.00 0.00 74 1010.4
20260903152727 26 79 12.9 17.7 0.00 0.00 0.00 75 1010.3
20260903152223 26 48 6.4 22.5 0.00 0.00 0.00 74 1010.3
20260903151722 26 71 8.0 14.5 0.00 0.00 0.00 76 1010.5
20260903151218 26 83 6.4 9.7 0.00 0.00 0.00 76 1010.4
20260903150713 26 80 9.7 16.1 0.00 0.00 0.00 75 1010.6
20260903150207 25 127 3.2 16.1 0.00 0.00 0.00 78 1010.7
20260903145702 24 173 3.2 11.3 0.00 0.00 0.00 80 1010.7
20260903145157 24 65 3.2 12.9 0.00 0.00 0.00 81 1010.5
20260903144656 25 98 4.8 14.5 0.00 0.00 0.00 80 1011.2
20260903144152 23 97 8.0 9.7 0.00 0.00 0.00 80 1011.0
20260903143648 23 153 4.8 14.5 0.00 0.00 0.00 82 1010.9
20260903143143 23 158 3.2 12.9 0.00 0.00 0.00 82 1010.8
20260903142639 23 95 11.3 22.5 0.00 0.00 0.00 83 1010.9
20260903142136 23 175 3.2 12.9 0.00 0.00 0.00 82 1011.0
20260903141631 22 135 3.2 17.7 0.00 0.00 0.00 84 1011.0
20260903141125 22 138 1.6 9.7 0.00 0.00 0.00 83 1011.2
20260903140622 23 108 4.8 11.3 0.00 0.00 0.00 82 1011.3
20260903140117 23 111 11.3 16.1 0.00 0.00 0.00 82 1011.2
20260903135612 22 124 6.4 14.5 0.00 0.00 0.00 83 1011.2
20260903135107 22 48 6.4 14.5 0.00 0.00 0.00 84 1011.2
20260903134606 22 17 4.8 12.9 0.00 0.00 0.00 84 1011.1
20260903134102 22 121 9.7 12.9 0.00 0.00 0.00 84 1011.0
20260903133559 22 126 4.8 11.3 0.00 0.00 0.00 84 1011.1
20260903133055 22 80 3.2 9.7 0.00 0.00 0.00 84 1011.4
20260903132550 21 114 6.4 12.9 0.00 0.00 0.00 85 1011.2
20260903132044 21 195 4.8 12.9 0.00 0.00 0.00 85 1011.2
20260903131544 21 116 8.0 11.3 0.00 0.00 0.00 85 1011.3
20260903131038 21 100 11.3 14.5 0.00 0.00 0.00 85 1011.3
20260903130532 21 114 6.4 11.3 0.00 0.00 0.00 85 1011.3
20260903130027 21 170 3.2 11.3 0.00 0.00 0.00 85 1011.4
20260903125525 20 98 6.4 6.4 0.00 0.00 0.00 85 1011.4
20260903125021 20 72 8.0 9.7 0.00 0.00 0.00 86 1011.5
20260903124515 20 84 3.2 6.4 0.00 0.00 0.00 86 1011.3
20260903124015 20 154 3.2 11.3 0.00 0.00 0.00 86 1011.5
20260903123509 20 68 1.6 11.3 0.00 0.00 0.00 87 1011.5
20260903123008 20 124 3.2 6.4 0.00 0.00 0.00 87 1011.3
20260903122502 20 94 3.2 11.3 0.00 0.00 0.00 87 1011.3
20260903122002 20 95 6.4 6.4 0.00 0.00 0.00 87 1011.4
20260903121456 19 83 6.4 9.7 0.00 0.00 0.00 87 1011.4
20260903120953 19 97 3.2 4.8 0.00 0.00 0.00 87 1011.6
20260903120451 19 64 4.8 9.7 0.00 0.00 0.00 87 1011.7
20260903115950 19 81 3.2 12.9 0.00 0.00 0.00 87 1011.6
20260903115449 19 96 4.8 6.4 0.00 0.00 0.00 87 1011.6
20260903114944 19 52 3.2 4.8 0.00 0.00 0.00 87 1011.5
20260903114440 19 113 3.2 6.4 0.00 0.00 0.00 86 1011.6
20260903113935 19 93 6.4 11.3 0.00 0.00 0.00 86 1011.4
20260903113432 19 59 4.8 6.4 0.00 0.00 0.00 87 1011.7
20260903112931 19 117 4.8 9.7 0.00 0.00 0.00 86 1011.7